Data supplied by UK-AIR on 30/4/2024
All Data GMT hour ending 
Status: R =Ratified P=Provisional,P*=As supplied
,,Chatham Roadside,,,,,,,,,,,,,,,,,,,,,,,
Date,time,"PM<sub>10</sub> particulate matter (Hourly measured)",status,unit,"Nitric oxide",status,unit,"Nitrogen dioxide",status,unit,"Nitrogen oxides as nitrogen dioxide",status,unit,"PM<sub>2.5</sub> particulate matter (Hourly measured)",status,unit
 
01-01-2024,01:00,17.392,P,ugm-3 (Ref.eq),1.83846,P,ugm-3,2.99539,P,ugm-3,5.81432,P,ugm-3,26.000,P,ugm-3 (BAM)
01-01-2024,02:00,12.561,P,ugm-3 (Ref.eq),2.66093,P,ugm-3,3.62395,P,ugm-3,7.70398,P,ugm-3,6.000,P,ugm-3 (BAM)
01-01-2024,03:00,10.628,P,ugm-3 (Ref.eq),2.14084,P,ugm-3,2.33189,P,ugm-3,5.61445,P,ugm-3,7.000,P,ugm-3 (BAM)
01-01-2024,04:00,8.696,P,ugm-3 (Ref.eq),0.97970,P,ugm-3,2.20444,P,ugm-3,3.70663,P,ugm-3,5.000,P,ugm-3 (BAM)
01-01-2024,05:00,4.831,P,ugm-3 (Ref.eq),0.97970,P,ugm-3,1.05974,P,ugm-3,2.56194,P,ugm-3,5.000,P,ugm-3 (BAM)
01-01-2024,06:00,1.932,P,ugm-3 (Ref.eq),1.26999,P,ugm-3,1.48680,P,ugm-3,3.43408,P,ugm-3,7.000,P,ugm-3 (BAM)
01-01-2024,07:00,11.594,P,ugm-3 (Ref.eq),1.16113,P,ugm-3,2.19880,P,ugm-3,3.97918,P,ugm-3,7.000,P,ugm-3 (BAM)
01-01-2024,08:00,12.561,P,ugm-3 (Ref.eq),1.23370,P,ugm-3,1.86949,P,ugm-3,3.76114,P,ugm-3,7.000,P,ugm-3 (BAM)
01-01-2024,09:00,13.527,P,ugm-3 (Ref.eq),1.92312,P,ugm-3,3.70138,P,ugm-3,6.65013,P,ugm-3,8.000,P,ugm-3 (BAM)
01-01-2024,10:00,22.223,P,ugm-3 (Ref.eq),1.95941,P,ugm-3,5.49906,P,ugm-3,8.50345,P,ugm-3,5.000,P,ugm-3 (BAM)
01-01-2024,11:00,20.290,P,ugm-3 (Ref.eq),3.33825,P,ugm-3,6.98248,P,ugm-3,12.10106,P,ugm-3,20.000,P,ugm-3 (BAM)
01-01-2024,12:00,16.425,P,ugm-3 (Ref.eq),4.17281,P,ugm-3,8.53731,P,ugm-3,14.93554,P,ugm-3,8.000,P,ugm-3 (BAM)
01-01-2024,13:00,17.392,P,ugm-3 (Ref.eq),7.32964,P,ugm-3,11.49174,P,ugm-3,22.73036,P,ugm-3,9.000,P,ugm-3 (BAM)
01-01-2024,14:00,24.155,P,ugm-3 (Ref.eq),9.68818,P,ugm-3,15.01607,P,ugm-3,29.87108,P,ugm-3,7.000,P,ugm-3 (BAM)
01-01-2024,15:00,22.223,P,ugm-3 (Ref.eq),10.63160,P,ugm-3,20.76473,P,ugm-3,37.06630,P,ugm-3,7.000,P,ugm-3 (BAM)
01-01-2024,16:00,18.358,P,ugm-3 (Ref.eq),8.63591,P,ugm-3,16.19346,P,ugm-3,29.43500,P,ugm-3,8.000,P,ugm-3 (BAM)
01-01-2024,17:00,11.594,P,ugm-3 (Ref.eq),3.37454,P,ugm-3,9.97936,P,ugm-3,15.15358,P,ugm-3,7.000,P,ugm-3 (BAM)
01-01-2024,18:00,13.527,P,ugm-3 (Ref.eq),1.95941,P,ugm-3,6.42572,P,ugm-3,9.43010,P,ugm-3,3.000,P,ugm-3 (BAM)
01-01-2024,19:00,2.899,P,ugm-3 (Ref.eq),2.28598,P,ugm-3,5.65244,P,ugm-3,9.15756,P,ugm-3,7.000,P,ugm-3 (BAM)
01-01-2024,20:00,4.831,P,ugm-3 (Ref.eq),2.83026,P,ugm-3,4.49084,P,ugm-3,8.83050,P,ugm-3,11.000,P,ugm-3 (BAM)
01-01-2024,21:00,4.831,P,ugm-3 (Ref.eq),1.85055,P,ugm-3,3.70364,P,ugm-3,6.54111,P,ugm-3,8.000,P,ugm-3 (BAM)
01-01-2024,22:00,1.932,P,ugm-3 (Ref.eq),1.45141,P,ugm-3,1.80822,P,ugm-3,4.03369,P,ugm-3,5.000,P,ugm-3 (BAM)
01-01-2024,23:00,0.966,P,ugm-3 (Ref.eq),1.30627,P,ugm-3,2.13978,P,ugm-3,4.14271,P,ugm-3,4.000,P,ugm-3 (BAM)
01-01-2024,24:00,0.966,P,ugm-3 (Ref.eq),0.79828,P,ugm-3,2.42811,P,ugm-3,3.65212,P,ugm-3,4.000,P,ugm-3 (BAM)
02-01-2024,01:00,0.000,P,ugm-3 (Ref.eq),0.67787,P,ugm-3,0.63339,P,ugm-3,1.67277,P,ugm-3,2.000,P,ugm-3 (BAM)
02-01-2024,02:00,3.865,P,ugm-3 (Ref.eq),0.58103,P,ugm-3,1.00006,P,ugm-3,1.89096,P,ugm-3,1.000,P,ugm-3 (BAM)
02-01-2024,03:00,2.899,P,ugm-3 (Ref.eq),0.61734,P,ugm-3,0.85347,P,ugm-3,1.80004,P,ugm-3,3.000,P,ugm-3 (BAM)
02-01-2024,04:00,1.932,P,ugm-3 (Ref.eq),0.65366,P,ugm-3,0.96143,P,ugm-3,1.96368,P,ugm-3,8.000,P,ugm-3 (BAM)
02-01-2024,05:00,2.899,P,ugm-3 (Ref.eq),0.83523,P,ugm-3,1.44668,P,ugm-3,2.72734,P,ugm-3,8.000,P,ugm-3 (BAM)
02-01-2024,06:00,7.730,P,ugm-3 (Ref.eq),2.50568,P,ugm-3,4.39458,P,ugm-3,8.23656,P,ugm-3,6.000,P,ugm-3 (BAM)
02-01-2024,07:00,19.324,P,ugm-3 (Ref.eq),4.39402,P,ugm-3,6.40838,P,ugm-3,13.14577,P,ugm-3,5.000,P,ugm-3 (BAM)
02-01-2024,08:00,22.223,P,ugm-3 (Ref.eq),12.81891,P,ugm-3,24.74569,P,ugm-3,44.40108,P,ugm-3,6.000,P,ugm-3 (BAM)
02-01-2024,09:00,14.493,P,ugm-3 (Ref.eq),11.25740,P,ugm-3,20.86710,P,ugm-3,38.12820,P,ugm-3,6.000,P,ugm-3 (BAM)
02-01-2024,10:00,0.000,P,ugm-3 (Ref.eq),2.83251,P,ugm-3,9.12994,P,ugm-3,13.47305,P,ugm-3,3.000,P,ugm-3 (BAM)
02-01-2024,11:00,4.831,P,ugm-3 (Ref.eq),10.34954,P,ugm-3,14.13165,P,ugm-3,30.00073,P,ugm-3,4.000,P,ugm-3 (BAM)
02-01-2024,12:00,4.831,P,ugm-3 (Ref.eq),7.69861,P,ugm-3,15.41448,P,ugm-3,27.21884,P,ugm-3,5.000,P,ugm-3 (BAM)
02-01-2024,13:00,1.932,P,ugm-3 (Ref.eq),6.60918,P,ugm-3,10.53929,P,ugm-3,20.67323,P,ugm-3,3.000,P,ugm-3 (BAM)
02-01-2024,14:00,2.899,P,ugm-3 (Ref.eq),6.75444,P,ugm-3,11.18932,P,ugm-3,21.54598,P,ugm-3,3.000,P,ugm-3 (BAM)
02-01-2024,15:00,12.561,P,ugm-3 (Ref.eq),5.91921,P,ugm-3,7.72441,P,ugm-3,16.80041,P,ugm-3,4.000,P,ugm-3 (BAM)
02-01-2024,16:00,9.662,P,ugm-3 (Ref.eq),6.42761,P,ugm-3,7.54489,P,ugm-3,17.40042,P,ugm-3,6.000,P,ugm-3 (BAM)
02-01-2024,17:00,4.831,P,ugm-3 (Ref.eq),5.12030,P,ugm-3,6.00386,P,ugm-3,13.85488,P,ugm-3,6.000,P,ugm-3 (BAM)
02-01-2024,18:00,3.865,P,ugm-3 (Ref.eq),5.84658,P,ugm-3,5.98118,P,ugm-3,14.94582,P,ugm-3,5.000,P,ugm-3 (BAM)
02-01-2024,19:00,5.797,P,ugm-3 (Ref.eq),4.90242,P,ugm-3,5.57430,P,ugm-3,13.09123,P,ugm-3,5.000,P,ugm-3 (BAM)
02-01-2024,20:00,9.662,P,ugm-3 (Ref.eq),6.42761,P,ugm-3,6.18122,P,ugm-3,16.03675,P,ugm-3,8.000,P,ugm-3 (BAM)
02-01-2024,21:00,12.561,P,ugm-3 (Ref.eq),5.15662,P,ugm-3,5.45726,P,ugm-3,13.36396,P,ugm-3,7.000,P,ugm-3 (BAM)
02-01-2024,22:00,9.662,P,ugm-3 (Ref.eq),4.17613,P,ugm-3,3.63330,P,ugm-3,10.03661,P,ugm-3,5.000,P,ugm-3 (BAM)
02-01-2024,23:00,17.392,P,ugm-3 (Ref.eq),2.17885,P,ugm-3,4.84116,P,ugm-3,8.18202,P,ugm-3,9.000,P,ugm-3 (BAM)
02-01-2024,24:00,7.730,P,ugm-3 (Ref.eq),0.90786,P,ugm-3,2.58989,P,ugm-3,3.98192,P,ugm-3,9.000,P,ugm-3 (BAM)
03-01-2024,01:00,13.527,P,ugm-3 (Ref.eq),0.96915,P,ugm-3,2.44406,P,ugm-3,3.93007,P,ugm-3,7.000,P,ugm-3 (BAM)
03-01-2024,02:00,23.189,P,ugm-3 (Ref.eq),0.72686,P,ugm-3,1.86944,P,ugm-3,2.98394,P,ugm-3,7.000,P,ugm-3 (BAM)
03-01-2024,03:00,15.459,P,ugm-3 (Ref.eq),0.65418,P,ugm-3,2.16284,P,ugm-3,3.16589,P,ugm-3,8.000,P,ugm-3 (BAM)
03-01-2024,04:00,8.696,P,ugm-3 (Ref.eq),0.43612,P,ugm-3,0.64132,P,ugm-3,1.31002,P,ugm-3,6.000,P,ugm-3 (BAM)
03-01-2024,05:00,4.831,P,ugm-3 (Ref.eq),0.39977,P,ugm-3,0.96997,P,ugm-3,1.58295,P,ugm-3,7.000,P,ugm-3 (BAM)
03-01-2024,06:00,2.899,P,ugm-3 (Ref.eq),2.10790,P,ugm-3,3.86390,P,ugm-3,7.09596,P,ugm-3,7.000,P,ugm-3 (BAM)
03-01-2024,07:00,9.662,P,ugm-3 (Ref.eq),6.90518,P,ugm-3,10.80925,P,ugm-3,21.39704,P,ugm-3,8.000,P,ugm-3 (BAM)
03-01-2024,08:00,18.358,P,ugm-3 (Ref.eq),17.33563,P,ugm-3,20.63449,P,ugm-3,47.21542,P,ugm-3,8.000,P,ugm-3 (BAM)
03-01-2024,09:00,24.155,P,ugm-3 (Ref.eq),24.34984,P,ugm-3,27.51025,P,ugm-3,64.84615,P,ugm-3,9.000,P,ugm-3 (BAM)
03-01-2024,10:00,28.986,P,ugm-3 (Ref.eq),10.83023,P,ugm-3,14.67069,P,ugm-3,31.27680,P,ugm-3,8.000,P,ugm-3 (BAM)
03-01-2024,11:00,21.256,P,ugm-3 (Ref.eq),7.41398,P,ugm-3,13.03124,P,ugm-3,24.39918,P,ugm-3,14.000,P,ugm-3 (BAM)
03-01-2024,12:00,24.155,P,ugm-3 (Ref.eq),13.26521,P,ugm-3,10.00916,P,ugm-3,30.34887,P,ugm-3,11.000,P,ugm-3 (BAM)
03-01-2024,13:00,18.358,P,ugm-3 (Ref.eq),8.79502,P,ugm-3,18.22797,P,ugm-3,31.71348,P,ugm-3,9.000,P,ugm-3 (BAM)
03-01-2024,14:00,28.020,P,ugm-3 (Ref.eq),14.02842,P,ugm-3,16.48074,P,ugm-3,37.99067,P,ugm-3,9.000,P,ugm-3 (BAM)
03-01-2024,15:00,16.425,P,ugm-3 (Ref.eq),17.51735,P,ugm-3,20.35586,P,ugm-3,47.21542,P,ugm-3,7.000,P,ugm-3 (BAM)
03-01-2024,16:00,18.358,P,ugm-3 (Ref.eq),32.89045,P,ugm-3,37.99524,P,ugm-3,88.42656,P,ugm-3,9.000,P,ugm-3 (BAM)
03-01-2024,17:00,12.561,P,ugm-3 (Ref.eq),12.64738,P,ugm-3,17.23369,P,ugm-3,36.62606,P,ugm-3,8.000,P,ugm-3 (BAM)
03-01-2024,18:00,9.662,P,ugm-3 (Ref.eq),13.62864,P,ugm-3,18.23998,P,ugm-3,39.13694,P,ugm-3,5.000,P,ugm-3 (BAM)
03-01-2024,19:00,7.730,P,ugm-3 (Ref.eq),12.53835,P,ugm-3,18.60172,P,ugm-3,37.82692,P,ugm-3,6.000,P,ugm-3 (BAM)
03-01-2024,20:00,11.594,P,ugm-3 (Ref.eq),13.04715,P,ugm-3,18.64033,P,ugm-3,38.64568,P,ugm-3,6.000,P,ugm-3 (BAM)
03-01-2024,21:00,7.730,P,ugm-3 (Ref.eq),12.82909,P,ugm-3,14.99003,P,ugm-3,34.66103,P,ugm-3,9.000,P,ugm-3 (BAM)
03-01-2024,22:00,7.730,P,ugm-3 (Ref.eq),6.57809,P,ugm-3,13.16665,P,ugm-3,23.25291,P,ugm-3,8.000,P,ugm-3 (BAM)
03-01-2024,23:00,7.730,P,ugm-3 (Ref.eq),7.12324,P,ugm-3,10.36573,P,ugm-3,21.28788,P,ugm-3,5.000,P,ugm-3 (BAM)
03-01-2024,24:00,7.730,P,ugm-3 (Ref.eq),1.99887,P,ugm-3,5.28651,P,ugm-3,8.35140,P,ugm-3,2.000,P,ugm-3 (BAM)
04-01-2024,01:00,7.730,P,ugm-3 (Ref.eq),2.18231,P,ugm-3,3.86391,P,ugm-3,7.21008,P,ugm-3,3.000,P,ugm-3 (BAM)
04-01-2024,02:00,5.797,P,ugm-3 (Ref.eq),0.87293,P,ugm-3,1.93884,P,ugm-3,3.27731,P,ugm-3,7.000,P,ugm-3 (BAM)
04-01-2024,03:00,3.865,P,ugm-3 (Ref.eq),0.47284,P,ugm-3,1.24138,P,ugm-3,1.96639,P,ugm-3,8.000,P,ugm-3 (BAM)
04-01-2024,04:00,4.831,P,ugm-3 (Ref.eq),0.54558,P,ugm-3,1.29371,P,ugm-3,2.13025,P,ugm-3,6.000,P,ugm-3 (BAM)
04-01-2024,05:00,5.797,P,ugm-3 (Ref.eq),1.52762,P,ugm-3,1.15348,P,ugm-3,3.49580,P,ugm-3,5.000,P,ugm-3 (BAM)
04-01-2024,06:00,6.763,P,ugm-3 (Ref.eq),3.20073,P,ugm-3,5.41581,P,ugm-3,10.32352,P,ugm-3,7.000,P,ugm-3 (BAM)
04-01-2024,07:00,10.628,P,ugm-3 (Ref.eq),9.05660,P,ugm-3,16.37389,P,ugm-3,30.26049,P,ugm-3,7.000,P,ugm-3 (BAM)
04-01-2024,08:00,21.256,P,ugm-3 (Ref.eq),34.44419,P,ugm-3,32.28710,P,ugm-3,85.10079,P,ugm-3,10.000,P,ugm-3 (BAM)
04-01-2024,09:00,15.459,P,ugm-3 (Ref.eq),39.31802,P,ugm-3,33.22576,P,ugm-3,93.51255,P,ugm-3,10.000,P,ugm-3 (BAM)
04-01-2024,10:00,25.121,P,ugm-3 (Ref.eq),24.58740,P,ugm-3,30.74098,P,ugm-3,68.44114,P,ugm-3,7.000,P,ugm-3 (BAM)
04-01-2024,11:00,32.851,P,ugm-3 (Ref.eq),20.98659,P,ugm-3,26.59409,P,ugm-3,58.77307,P,ugm-3,10.000,P,ugm-3 (BAM)
04-01-2024,12:00,32.851,P,ugm-3 (Ref.eq),24.98750,P,ugm-3,33.24096,P,ugm-3,71.55458,P,ugm-3,20.000,P,ugm-3 (BAM)
04-01-2024,13:00,29.952,P,ugm-3 (Ref.eq),20.15003,P,ugm-3,32.62889,P,ugm-3,63.52517,P,ugm-3,11.000,P,ugm-3 (BAM)
04-01-2024,14:00,25.121,P,ugm-3 (Ref.eq),7.09252,P,ugm-3,22.06191,P,ugm-3,32.93696,P,ugm-3,11.000,P,ugm-3 (BAM)
04-01-2024,15:00,21.256,P,ugm-3 (Ref.eq),1.96408,P,ugm-3,11.02626,P,ugm-3,14.03781,P,ugm-3,8.000,P,ugm-3 (BAM)
04-01-2024,16:00,8.696,P,ugm-3 (Ref.eq),5.16481,P,ugm-3,17.20677,P,ugm-3,25.12604,P,ugm-3,5.000,P,ugm-3 (BAM)
04-01-2024,17:00,8.696,P,ugm-3 (Ref.eq),14.54876,P,ugm-3,30.45689,P,ugm-3,52.76467,P,ugm-3,9.000,P,ugm-3 (BAM)
04-01-2024,18:00,8.696,P,ugm-3 (Ref.eq),4.65560,P,ugm-3,20.06317,P,ugm-3,27.20167,P,ugm-3,8.000,P,ugm-3 (BAM)
04-01-2024,19:00,8.696,P,ugm-3 (Ref.eq),9.74767,P,ugm-3,17.55376,P,ugm-3,32.49998,P,ugm-3,7.000,P,ugm-3 (BAM)
04-01-2024,20:00,7.730,P,ugm-3 (Ref.eq),4.94658,P,ugm-3,11.15064,P,ugm-3,18.73528,P,ugm-3,7.000,P,ugm-3 (BAM)
04-01-2024,21:00,11.594,P,ugm-3 (Ref.eq),3.60082,P,ugm-3,7.20571,P,ugm-3,12.72688,P,ugm-3,7.000,P,ugm-3 (BAM)
04-01-2024,22:00,4.831,P,ugm-3 (Ref.eq),3.60082,P,ugm-3,8.29814,P,ugm-3,13.81932,P,ugm-3,5.000,P,ugm-3 (BAM)
04-01-2024,23:00,6.763,P,ugm-3 (Ref.eq),2.21869,P,ugm-3,5.55604,P,ugm-3,8.95798,P,ugm-3,2.000,P,ugm-3 (BAM)
04-01-2024,24:00,3.865,P,ugm-3 (Ref.eq),1.63674,P,ugm-3,5.35592,P,ugm-3,7.86554,P,ugm-3,2.000,P,ugm-3 (BAM)
05-01-2024,01:00,5.797,P,ugm-3 (Ref.eq),2.32965,P,ugm-3,8.59873,P,ugm-3,12.17081,P,ugm-3,5.000,P,ugm-3 (BAM)
05-01-2024,02:00,6.763,P,ugm-3 (Ref.eq),1.01922,P,ugm-3,9.07757,P,ugm-3,10.64035,P,ugm-3,6.000,P,ugm-3 (BAM)
05-01-2024,03:00,2.899,P,ugm-3 (Ref.eq),0.61881,P,ugm-3,3.47857,P,ugm-3,4.42741,P,ugm-3,7.000,P,ugm-3 (BAM)
05-01-2024,04:00,0.000,P,ugm-3 (Ref.eq),0.83722,P,ugm-3,3.58097,P,ugm-3,4.86468,P,ugm-3,-1.000,P,ugm-3 (BAM)
05-01-2024,05:00,0.966,P,ugm-3 (Ref.eq),0.83722,P,ugm-3,3.96358,P,ugm-3,5.24730,P,ugm-3,-4.000,P,ugm-3 (BAM)
05-01-2024,06:00,3.865,P,ugm-3 (Ref.eq),2.94846,P,ugm-3,10.83836,P,ugm-3,15.35927,P,ugm-3,1.000,P,ugm-3 (BAM)
05-01-2024,07:00,12.561,P,ugm-3 (Ref.eq),6.04253,P,ugm-3,20.30563,P,ugm-3,29.57070,P,ugm-3,8.000,P,ugm-3 (BAM)
05-01-2024,08:00,18.358,P,ugm-3 (Ref.eq),15.39752,P,ugm-3,25.69352,P,ugm-3,49.30272,P,ugm-3,10.000,P,ugm-3 (BAM)
05-01-2024,09:00,16.425,P,ugm-3 (Ref.eq),15.79793,P,ugm-3,28.03117,P,ugm-3,52.25432,P,ugm-3,9.000,P,ugm-3 (BAM)
05-01-2024,10:00,17.392,P,ugm-3 (Ref.eq),14.99711,P,ugm-3,24.99565,P,ugm-3,47.99090,P,ugm-3,11.000,P,ugm-3 (BAM)
05-01-2024,11:00,13.527,P,ugm-3 (Ref.eq),14.26910,P,ugm-3,28.35295,P,ugm-3,50.23193,P,ugm-3,10.000,P,ugm-3 (BAM)
05-01-2024,12:00,13.527,P,ugm-3 (Ref.eq),19.14680,P,ugm-3,31.96976,P,ugm-3,61.32777,P,ugm-3,8.000,P,ugm-3 (BAM)
05-01-2024,13:00,11.594,P,ugm-3 (Ref.eq),16.12554,P,ugm-3,31.24569,P,ugm-3,55.97116,P,ugm-3,11.000,P,ugm-3 (BAM)
05-01-2024,14:00,7.730,P,ugm-3 (Ref.eq),19.18320,P,ugm-3,26.55733,P,ugm-3,55.97116,P,ugm-3,11.000,P,ugm-3 (BAM)
05-01-2024,15:00,10.628,P,ugm-3 (Ref.eq),34.25311,P,ugm-3,38.04982,P,ugm-3,90.57052,P,ugm-3,10.000,P,ugm-3 (BAM)
05-01-2024,16:00,19.324,P,ugm-3 (Ref.eq),15.87073,P,ugm-3,30.48853,P,ugm-3,54.82331,P,ugm-3,9.000,P,ugm-3 (BAM)
05-01-2024,17:00,14.493,P,ugm-3 (Ref.eq),10.41062,P,ugm-3,28.63930,P,ugm-3,44.60202,P,ugm-3,12.000,P,ugm-3 (BAM)
05-01-2024,18:00,11.594,P,ugm-3 (Ref.eq),10.92023,P,ugm-3,29.06041,P,ugm-3,45.80452,P,ugm-3,16.000,P,ugm-3 (BAM)
05-01-2024,19:00,14.493,P,ugm-3 (Ref.eq),7.86256,P,ugm-3,22.92621,P,ugm-3,34.98197,P,ugm-3,11.000,P,ugm-3 (BAM)
05-01-2024,20:00,7.730,P,ugm-3 (Ref.eq),7.38935,P,ugm-3,23.76111,P,ugm-3,35.09129,P,ugm-3,8.000,P,ugm-3 (BAM)
05-01-2024,21:00,6.763,P,ugm-3 (Ref.eq),6.33373,P,ugm-3,23.90391,P,ugm-3,33.61549,P,ugm-3,8.000,P,ugm-3 (BAM)
05-01-2024,22:00,7.730,P,ugm-3 (Ref.eq),3.27607,P,ugm-3,18.58960,P,ugm-3,23.61283,P,ugm-3,7.000,P,ugm-3 (BAM)
05-01-2024,23:00,10.628,P,ugm-3 (Ref.eq),2.83926,P,ugm-3,19.80596,P,ugm-3,24.15943,P,ugm-3,8.000,P,ugm-3 (BAM)
05-01-2024,24:00,6.763,P,ugm-3 (Ref.eq),2.32965,P,ugm-3,16.15994,P,ugm-3,19.73202,P,ugm-3,9.000,P,ugm-3 (BAM)
06-01-2024,01:00,7.730,P,ugm-3 (Ref.eq),1.60290,P,ugm-3,13.65959,P,ugm-3,16.11734,P,ugm-3,9.000,P,ugm-3 (BAM)
06-01-2024,02:00,8.696,P,ugm-3 (Ref.eq),1.26289,P,ugm-3,10.75326,P,ugm-3,12.68967,P,ugm-3,10.000,P,ugm-3 (BAM)
06-01-2024,03:00,9.662,P,ugm-3 (Ref.eq),0.87431,P,ugm-3,11.95074,P,ugm-3,13.29134,P,ugm-3,11.000,P,ugm-3 (BAM)
06-01-2024,04:00,8.696,P,ugm-3 (Ref.eq),1.63933,P,ugm-3,10.12137,P,ugm-3,12.63497,P,ugm-3,11.000,P,ugm-3 (BAM)
06-01-2024,05:00,8.696,P,ugm-3 (Ref.eq),1.12932,P,ugm-3,9.86414,P,ugm-3,11.59573,P,ugm-3,9.000,P,ugm-3 (BAM)
06-01-2024,06:00,9.662,P,ugm-3 (Ref.eq),1.45718,P,ugm-3,9.25202,P,ugm-3,11.48634,P,ugm-3,6.000,P,ugm-3 (BAM)
06-01-2024,07:00,6.763,P,ugm-3 (Ref.eq),1.93077,P,ugm-3,11.42480,P,ugm-3,14.38527,P,ugm-3,6.000,P,ugm-3 (BAM)
06-01-2024,08:00,11.594,P,ugm-3 (Ref.eq),5.68302,P,ugm-3,13.87596,P,ugm-3,22.58980,P,ugm-3,8.000,P,ugm-3 (BAM)
06-01-2024,09:00,7.730,P,ugm-3 (Ref.eq),5.61016,P,ugm-3,15.46449,P,ugm-3,24.06662,P,ugm-3,7.000,P,ugm-3 (BAM)
06-01-2024,10:00,17.392,P,ugm-3 (Ref.eq),9.69028,P,ugm-3,20.31186,P,ugm-3,35.17008,P,ugm-3,6.000,P,ugm-3 (BAM)
06-01-2024,11:00,10.628,P,ugm-3 (Ref.eq),7.90523,P,ugm-3,14.95377,P,ugm-3,27.07494,P,ugm-3,7.000,P,ugm-3 (BAM)
06-01-2024,12:00,9.662,P,ugm-3 (Ref.eq),14.13469,P,ugm-3,17.05249,P,ugm-3,38.72537,P,ugm-3,6.000,P,ugm-3 (BAM)
06-01-2024,13:00,16.425,P,ugm-3 (Ref.eq),12.85965,P,ugm-3,19.39039,P,ugm-3,39.10825,P,ugm-3,5.000,P,ugm-3 (BAM)
06-01-2024,14:00,9.662,P,ugm-3 (Ref.eq),10.71031,P,ugm-3,19.89647,P,ugm-3,36.31871,P,ugm-3,6.000,P,ugm-3 (BAM)
06-01-2024,15:00,12.561,P,ugm-3 (Ref.eq),10.78316,P,ugm-3,17.54218,P,ugm-3,34.07614,P,ugm-3,4.000,P,ugm-3 (BAM)
06-01-2024,16:00,10.628,P,ugm-3 (Ref.eq),13.07823,P,ugm-3,25.78296,P,ugm-3,45.83596,P,ugm-3,7.000,P,ugm-3 (BAM)
06-01-2024,17:00,10.628,P,ugm-3 (Ref.eq),11.94891,P,ugm-3,26.91289,P,ugm-3,45.23430,P,ugm-3,12.000,P,ugm-3 (BAM)
06-01-2024,18:00,13.527,P,ugm-3 (Ref.eq),14.13469,P,ugm-3,26.24156,P,ugm-3,47.91444,P,ugm-3,10.000,P,ugm-3 (BAM)
06-01-2024,19:00,15.459,P,ugm-3 (Ref.eq),12.78679,P,ugm-3,26.83149,P,ugm-3,46.43763,P,ugm-3,10.000,P,ugm-3 (BAM)
06-01-2024,20:00,11.594,P,ugm-3 (Ref.eq),12.31321,P,ugm-3,23.29129,P,ugm-3,42.17127,P,ugm-3,8.000,P,ugm-3 (BAM)
06-01-2024,21:00,13.527,P,ugm-3 (Ref.eq),11.54819,P,ugm-3,18.39295,P,ugm-3,36.09992,P,ugm-3,6.000,P,ugm-3 (BAM)
06-01-2024,22:00,6.763,P,ugm-3 (Ref.eq),4.44441,P,ugm-3,14.18892,P,ugm-3,21.00359,P,ugm-3,7.000,P,ugm-3 (BAM)
06-01-2024,23:00,8.696,P,ugm-3 (Ref.eq),6.15660,P,ugm-3,11.94648,P,ugm-3,21.38647,P,ugm-3,10.000,P,ugm-3 (BAM)
06-01-2024,24:00,10.628,P,ugm-3 (Ref.eq),3.49724,P,ugm-3,15.20365,P,ugm-3,20.56602,P,ugm-3,7.000,P,ugm-3 (BAM)
07-01-2024,01:00,14.493,P,ugm-3 (Ref.eq),2.43057,P,ugm-3,11.89073,P,ugm-3,15.61754,P,ugm-3,6.000,P,ugm-3 (BAM)
07-01-2024,02:00,11.594,P,ugm-3 (Ref.eq),0.82639,P,ugm-3,10.04466,P,ugm-3,11.31177,P,ugm-3,7.000,P,ugm-3 (BAM)
07-01-2024,03:00,9.662,P,ugm-3 (Ref.eq),0.83855,P,ugm-3,5.77498,P,ugm-3,7.06073,P,ugm-3,7.000,P,ugm-3 (BAM)
07-01-2024,04:00,7.730,P,ugm-3 (Ref.eq),0.65625,P,ugm-3,6.71131,P,ugm-3,7.71755,P,ugm-3,7.000,P,ugm-3 (BAM)
07-01-2024,05:00,11.594,P,ugm-3 (Ref.eq),1.05730,P,ugm-3,5.05643,P,ugm-3,6.67759,P,ugm-3,5.000,P,ugm-3 (BAM)
07-01-2024,06:00,9.662,P,ugm-3 (Ref.eq),1.20313,P,ugm-3,5.70857,P,ugm-3,7.55334,P,ugm-3,4.000,P,ugm-3 (BAM)
07-01-2024,07:00,8.696,P,ugm-3 (Ref.eq),2.88022,P,ugm-3,8.06316,P,ugm-3,12.47944,P,ugm-3,3.000,P,ugm-3 (BAM)
07-01-2024,08:00,6.763,P,ugm-3 (Ref.eq),3.24480,P,ugm-3,12.21130,P,ugm-3,17.18659,P,ugm-3,3.000,P,ugm-3 (BAM)
07-01-2024,09:00,10.628,P,ugm-3 (Ref.eq),8.02086,P,ugm-3,21.36316,P,ugm-3,33.66164,P,ugm-3,4.000,P,ugm-3 (BAM)
07-01-2024,10:00,9.662,P,ugm-3 (Ref.eq),11.08337,P,ugm-3,20.27984,P,ugm-3,37.27411,P,ugm-3,7.000,P,ugm-3 (BAM)
07-01-2024,11:00,11.594,P,ugm-3 (Ref.eq),4.59377,P,ugm-3,7.13253,P,ugm-3,14.17620,P,ugm-3,6.000,P,ugm-3 (BAM)
07-01-2024,12:00,15.459,P,ugm-3 (Ref.eq),4.55731,P,ugm-3,8.50205,P,ugm-3,15.48983,P,ugm-3,5.000,P,ugm-3 (BAM)
07-01-2024,13:00,16.425,P,ugm-3 (Ref.eq),3.93751,P,ugm-3,8.19350,P,ugm-3,14.23094,P,ugm-3,7.000,P,ugm-3 (BAM)
07-01-2024,14:00,15.459,P,ugm-3 (Ref.eq),3.35418,P,ugm-3,7.17223,P,ugm-3,12.31523,P,ugm-3,6.000,P,ugm-3 (BAM)
07-01-2024,15:00,12.561,P,ugm-3 (Ref.eq),2.55209,P,ugm-3,6.92425,P,ugm-3,10.83741,P,ugm-3,8.000,P,ugm-3 (BAM)
07-01-2024,16:00,11.594,P,ugm-3 (Ref.eq),2.91668,P,ugm-3,8.39040,P,ugm-3,12.86258,P,ugm-3,7.000,P,ugm-3 (BAM)
07-01-2024,17:00,9.662,P,ugm-3 (Ref.eq),2.15105,P,ugm-3,8.36019,P,ugm-3,11.65842,P,ugm-3,7.000,P,ugm-3 (BAM)
07-01-2024,18:00,13.527,P,ugm-3 (Ref.eq),2.58855,P,ugm-3,8.18198,P,ugm-3,12.15103,P,ugm-3,7.000,P,ugm-3 (BAM)
07-01-2024,19:00,16.425,P,ugm-3 (Ref.eq),2.33334,P,ugm-3,9.33957,P,ugm-3,12.91731,P,ugm-3,6.000,P,ugm-3 (BAM)
07-01-2024,20:00,17.392,P,ugm-3 (Ref.eq),1.60417,P,ugm-3,8.48718,P,ugm-3,10.94688,P,ugm-3,5.000,P,ugm-3 (BAM)
07-01-2024,21:00,14.493,P,ugm-3 (Ref.eq),1.71355,P,ugm-3,4.92594,P,ugm-3,7.55334,P,ugm-3,3.000,P,ugm-3 (BAM)
07-01-2024,22:00,14.493,P,ugm-3 (Ref.eq),1.16667,P,ugm-3,4.66979,P,ugm-3,6.45866,P,ugm-3,8.000,P,ugm-3 (BAM)
07-01-2024,23:00,12.561,P,ugm-3 (Ref.eq),0.25521,P,ugm-3,3.60429,P,ugm-3,3.99561,P,ugm-3,8.000,P,ugm-3 (BAM)
07-01-2024,24:00,10.628,P,ugm-3 (Ref.eq),0.54688,P,ugm-3,2.50026,P,ugm-3,3.33880,P,ugm-3,6.000,P,ugm-3 (BAM)
08-01-2024,01:00,10.628,P,ugm-3 (Ref.eq),0.24325,P,ugm-3,1.37972,P,ugm-3,1.75270,P,ugm-3,5.000,P,ugm-3 (BAM)
08-01-2024,02:00,7.730,P,ugm-3 (Ref.eq),0.29190,P,ugm-3,1.30513,P,ugm-3,1.75270,P,ugm-3,3.000,P,ugm-3 (BAM)
08-01-2024,03:00,9.662,P,ugm-3 (Ref.eq),0.36487,P,ugm-3,2.72685,P,ugm-3,3.28631,P,ugm-3,3.000,P,ugm-3 (BAM)
08-01-2024,04:00,8.696,P,ugm-3 (Ref.eq),0.36487,P,ugm-3,3.38411,P,ugm-3,3.94358,P,ugm-3,7.000,P,ugm-3 (BAM)
08-01-2024,05:00,5.797,P,ugm-3 (Ref.eq),0.62029,P,ugm-3,2.39000,P,ugm-3,3.34109,P,ugm-3,7.000,P,ugm-3 (BAM)
08-01-2024,06:00,4.831,P,ugm-3 (Ref.eq),1.05813,P,ugm-3,5.49790,P,ugm-3,7.12035,P,ugm-3,7.000,P,ugm-3 (BAM)
08-01-2024,07:00,12.561,P,ugm-3 (Ref.eq),2.07978,P,ugm-3,7.71066,P,ugm-3,10.89961,P,ugm-3,8.000,P,ugm-3 (BAM)
08-01-2024,08:00,11.594,P,ugm-3 (Ref.eq),4.34199,P,ugm-3,6.70672,P,ugm-3,13.36434,P,ugm-3,7.000,P,ugm-3 (BAM)
08-01-2024,09:00,10.628,P,ugm-3 (Ref.eq),4.15956,P,ugm-3,11.53251,P,ugm-3,17.91041,P,ugm-3,8.000,P,ugm-3 (BAM)
08-01-2024,10:00,7.730,P,ugm-3 (Ref.eq),4.34199,P,ugm-3,10.10257,P,ugm-3,16.76020,P,ugm-3,7.000,P,ugm-3 (BAM)
08-01-2024,11:00,9.662,P,ugm-3 (Ref.eq),4.56092,P,ugm-3,7.35693,P,ugm-3,14.35024,P,ugm-3,5.000,P,ugm-3 (BAM)
08-01-2024,12:00,8.696,P,ugm-3 (Ref.eq),4.52443,P,ugm-3,7.19379,P,ugm-3,14.13115,P,ugm-3,6.000,P,ugm-3 (BAM)
08-01-2024,13:00,10.628,P,ugm-3 (Ref.eq),5.76500,P,ugm-3,10.11154,P,ugm-3,18.95107,P,ugm-3,5.000,P,ugm-3 (BAM)
08-01-2024,14:00,9.662,P,ugm-3 (Ref.eq),5.21769,P,ugm-3,9.19803,P,ugm-3,17.19837,P,ugm-3,5.000,P,ugm-3 (BAM)
08-01-2024,15:00,9.662,P,ugm-3 (Ref.eq),15.21521,P,ugm-3,22.40486,P,ugm-3,45.73453,P,ugm-3,8.000,P,ugm-3 (BAM)
08-01-2024,16:00,14.493,P,ugm-3 (Ref.eq),53.19851,P,ugm-3,38.32575,P,ugm-3,119.89567,P,ugm-3,11.000,P,ugm-3 (BAM)
08-01-2024,17:00,12.561,P,ugm-3 (Ref.eq),4.81633,P,ugm-3,12.27818,P,ugm-3,19.66311,P,ugm-3,9.000,P,ugm-3 (BAM)
08-01-2024,18:00,10.628,P,ugm-3 (Ref.eq),3.75819,P,ugm-3,12.31224,P,ugm-3,18.07472,P,ugm-3,9.000,P,ugm-3 (BAM)
08-01-2024,19:00,13.527,P,ugm-3 (Ref.eq),2.48114,P,ugm-3,9.06704,P,ugm-3,12.87140,P,ugm-3,10.000,P,ugm-3 (BAM)
08-01-2024,20:00,17.392,P,ugm-3 (Ref.eq),2.84601,P,ugm-3,8.89098,P,ugm-3,13.25480,P,ugm-3,11.000,P,ugm-3 (BAM)
08-01-2024,21:00,16.425,P,ugm-3 (Ref.eq),1.82437,P,ugm-3,7.93797,P,ugm-3,10.73529,P,ugm-3,16.000,P,ugm-3 (BAM)
08-01-2024,22:00,17.392,P,ugm-3 (Ref.eq),1.20408,P,ugm-3,7.46499,P,ugm-3,9.31122,P,ugm-3,13.000,P,ugm-3 (BAM)
08-01-2024,23:00,19.324,P,ugm-3 (Ref.eq),1.05813,P,ugm-3,4.78587,P,ugm-3,6.40831,P,ugm-3,15.000,P,ugm-3 (BAM)
08-01-2024,24:00,14.493,P,ugm-3 (Ref.eq),0.65677,P,ugm-3,4.52493,P,ugm-3,5.53196,P,ugm-3,14.000,P,ugm-3 (BAM)
09-01-2024,01:00,16.425,P,ugm-3 (Ref.eq),0.04869,P,ugm-3,4.31010,P,ugm-3,4.38475,P,ugm-3,11.000,P,ugm-3 (BAM)
09-01-2024,02:00,13.527,P,ugm-3 (Ref.eq),0.38951,P,ugm-3,3.12981,P,ugm-3,3.72704,P,ugm-3,10.000,P,ugm-3 (BAM)
09-01-2024,03:00,14.493,P,ugm-3 (Ref.eq),0.36516,P,ugm-3,2.56423,P,ugm-3,3.12414,P,ugm-3,8.000,P,ugm-3 (BAM)
09-01-2024,04:00,12.561,P,ugm-3 (Ref.eq),0.18258,P,ugm-3,3.72113,P,ugm-3,4.00109,P,ugm-3,8.000,P,ugm-3 (BAM)
09-01-2024,05:00,16.425,P,ugm-3 (Ref.eq),0.14607,P,ugm-3,6.35317,P,ugm-3,6.57713,P,ugm-3,10.000,P,ugm-3 (BAM)
09-01-2024,06:00,15.459,P,ugm-3 (Ref.eq),1.38762,P,ugm-3,6.42262,P,ugm-3,8.55027,P,ugm-3,11.000,P,ugm-3 (BAM)
09-01-2024,07:00,14.493,P,ugm-3 (Ref.eq),1.42413,P,ugm-3,6.85992,P,ugm-3,9.04355,P,ugm-3,13.000,P,ugm-3 (BAM)
09-01-2024,08:00,14.493,P,ugm-3 (Ref.eq),5.80607,P,ugm-3,11.43177,P,ugm-3,20.33429,P,ugm-3,12.000,P,ugm-3 (BAM)
09-01-2024,09:00,16.425,P,ugm-3 (Ref.eq),7.96053,P,ugm-3,15.19874,P,ugm-3,27.40470,P,ugm-3,11.000,P,ugm-3 (BAM)
09-01-2024,10:00,11.594,P,ugm-3 (Ref.eq),3.87072,P,ugm-3,8.20582,P,ugm-3,14.14083,P,ugm-3,9.000,P,ugm-3 (BAM)
09-01-2024,11:00,17.392,P,ugm-3 (Ref.eq),4.45497,P,ugm-3,9.00906,P,ugm-3,15.83992,P,ugm-3,9.000,P,ugm-3 (BAM)
09-01-2024,12:00,23.189,P,ugm-3 (Ref.eq),5.29485,P,ugm-3,10.90022,P,ugm-3,19.01887,P,ugm-3,8.000,P,ugm-3 (BAM)
09-01-2024,13:00,28.986,P,ugm-3 (Ref.eq),8.72737,P,ugm-3,16.65378,P,ugm-3,30.03556,P,ugm-3,10.000,P,ugm-3 (BAM)
09-01-2024,14:00,24.155,P,ugm-3 (Ref.eq),6.68246,P,ugm-3,13.97946,P,ugm-3,24.22576,P,ugm-3,11.000,P,ugm-3 (BAM)
09-01-2024,15:00,28.986,P,ugm-3 (Ref.eq),16.43228,P,ugm-3,15.47277,P,ugm-3,40.66858,P,ugm-3,8.000,P,ugm-3 (BAM)
09-01-2024,16:00,14.493,P,ugm-3 (Ref.eq),84.53495,P,ugm-3,47.79961,P,ugm-3,177.41806,P,ugm-3,13.000,P,ugm-3 (BAM)
09-01-2024,17:00,22.223,P,ugm-3 (Ref.eq),12.23292,P,ugm-3,17.03366,P,ugm-3,35.79054,P,ugm-3,11.000,P,ugm-3 (BAM)
09-01-2024,18:00,19.324,P,ugm-3 (Ref.eq),7.12066,P,ugm-3,17.85676,P,ugm-3,28.77494,P,ugm-3,7.000,P,ugm-3 (BAM)
09-01-2024,19:00,19.324,P,ugm-3 (Ref.eq),12.78066,P,ugm-3,15.20723,P,ugm-3,34.80398,P,ugm-3,9.000,P,ugm-3 (BAM)
09-01-2024,20:00,23.189,P,ugm-3 (Ref.eq),2.00839,P,ugm-3,9.85553,P,ugm-3,12.93502,P,ugm-3,11.000,P,ugm-3 (BAM)
09-01-2024,21:00,21.256,P,ugm-3 (Ref.eq),1.67974,P,ugm-3,11.78449,P,ugm-3,14.36007,P,ugm-3,9.000,P,ugm-3 (BAM)
09-01-2024,22:00,18.358,P,ugm-3 (Ref.eq),1.75278,P,ugm-3,12.76870,P,ugm-3,15.45625,P,ugm-3,10.000,P,ugm-3 (BAM)